Temp
18 15 15 16 14 16 18 18 17 17 18 18 14 14 15 18 17 17 19 19 20 20 21 20 19 18 18 17 17 16 16 16 15 15 16 16 17 16 16 16 16 16 16 16
15 15 15 16 18 18 18 18 16 17 18 17 15 14 16 15 16 18 19 20 20 21 21 20 20 19 18 17 17 17 16 16 16 16 16 16 16 17 17 17 17 17 16 16
15 17 18 18 19 19 18 18 17 17 16 15 15 14 15 16 17 19 20 21 22 22 21 21 20 19 19 18 18 17 17 17 17 17 16 16 16 18 18 18 18 17 16 16
15 17 18 18 18 17 17 17 18 17 15 15 15 15 14 17 15 14 18 20 21 22 22 22 21 20 19 19 18 18 18 18 17 17 16 17 18 19 18 18 17 17 17 16
16 18 18 17 17 18 16 17 17 17 15 14 15 14 14 16 18 15 15 21 22 23 22 22 22 21 21 20 19 18 18 18 17 17 17 17 18 19 18 18 18 18 17 16
15 18 17 17 17 17 17 17 13 12 12 13 14 15 15 17 18 18 17 20 23 23 23 22 23 22 21 20 19 19 18 18 18 17 18 18 19 19 19 19 18 18 17 17
15 16 17 18 17 16 15 13 13 15 13 14 15 14 16 17 17 18 17 21 23 23 22 23 22 22 22 21 20 19 19 19 19 18 18 19 19 19 19 19 18 18 18 17
14 15 15 16 16 15 13 13 12 17 14 15 15 15 18 18 20 20 23 24 24 23 23 23 23 22 22 21 20 20 20 20 19 19 20 20 20 19 19 19 19 18 18 17
13 15 15 15 16 16 15 14 14 15 14 13 14 16 18 18 17 19 20 21 22 23 23 23 23 22 22 22 21 21 21 21 20 20 20 20 20 20 20 19 19 18 18 17
16 16 15 15 16 16 15 15 14 11 15 15 14 15 18 18 20 20 17 19 23 24 23 22 22 22 22 22 22 21 21 21 21 21 21 21 20 20 20 19 19 18 18 17
14 15 15 15 14 13 13 14 13 12 11 13 13 16 15 19 18 17 16 22 24 24 24 23 23 22 22 22 22 21 21 21 21 21 21 21 21 20 20 19 19 19 18 18
13 12 12 13 14 12 12 13 12 11 15 10 10 14 17 16 15 17 19 21 21 23 24 23 23 22 22 22 22 21 21 22 22 22 21 21 21 20 20 20 19 19 18 18
13 13 12 13 13 13 13 12 13 12 10 11 11 15 16 16 16 19 19 22 22 22 22 22 22 22 22 22 22 22 22 22 22 22 21 21 21 20 20 20 19 18 18 18
15 11 12 13 15 13 13 13 12 13 10 14 15 17 19 18 16 16 21 22 22 23 23 23 22 22 22 22 22 22 22 22 22 21 21 21 21 21 20 20 19 18 18 18
13 12 11 12 13 13 14 13 13 11 15 14 16 16 18 18 19 19 20 21 21 22 22 22 23 23 23 22 22 22 23 23 22 21 21 21 21 21 20 19 19 18 18 18
10 12 12 13 14 13 13 15 14 14 14 15 16 16 18 19 19 18 19 20 22 22 23 23 22 23 23 23 23 23 23 23 22 22 22 22 21 21 20 19 19 18 18 18
10 10 11 11 15 13 12 15 15 16 14 16 14 17 19 16 15 18 19 19 20 23 23 23 24 23 24 24 24 23 24 23 22 22 22 22 21 21 20 19 19 18 18 17
9 9 9 9 13 11 16 16 15 16 17 16 17 18 18 19 19 19 20 19 20 21 22 22 23 24 24 24 23 24 23 23 22 22 22 22 21 20 20 19 19 18 18 17
11 9 7 10 9 14 15 16 16 15 15 14 15 16 17 18 18 17 19 20 20 21 22 22 22 23 23 23 24 23 23 23 22 22 22 22 21 20 20 19 19 18 17 17
9 11 11 6 8 11 14 15 17 15 14 16 16 15 15 16 14 16 21 21 20 21 21 21 21 22 22 23 23 23 22 22 22 22 23 22 21 21 20 19 19 18 17 17
10 7 10 11 11 13 13 15 18 14 14 17 18 18 17 13 16 20 20 20 20 20 21 21 21 21 21 22 22 22 22 22 23 22 22 22 21 21 20 19 18 17 16 16
10 7 9 9 10 10 15 16 16 17 20 17 18 19 19 19 19 20 21 21 21 21 20 20 20 21 21 21 21 21 21 22 22 22 22 21 21 21 20 19 18 16 16 15
9 11 11 11 13 14 15 16 18 17 17 18 18 18 18 18 19 19 20 20 20 20 20 20 20 21 20 20 20 20 21 21 21 21 21 21 20 20 19 18 17 16 15 15
5 4 3 5 11 7 6 11 13 14 15 17 19 18 18 18 19 19 20 20 20 20 20 20 21 21 21 20 20 20 20 20 19 19 19 19 19 19 18 17 16 16 15 15
6 6 4 4 5 8 9 9 8 8 9 9 12 15 17 16 18 19 19 19 19 20 20 20 20 20 21 20 20 20 20 19 18 18 18 18 18 18 17 16 16 15 14 15
5 5 5 5 7 7 7 8 9 9 8 9 10 13 14 14 15 16 17 19 19 19 19 19 20 20 20 19 19 19 19 19 18 17 17 17 17 16 16 15 14 13 13 13
Height
1544 1550 1554 1547 1547 1544 1544 1545 1546 1539 1531 1534 1535 1530 1519 1516 1517 1515 1515 1515 1515 1515 1519 1522 1525 1528 1532 1535 1537 1539 1542 1545 1547 1549 1550 1551 1553 1555 1556 1557 1558 1558 1559 1558
1550 1553 1541 1541 1541 1542 1543 1545 1547 1537 1531 1534 1531 1524 1509 1506 1504 1503 1505 1507 1508 1510 1514 1516 1520 1524 1526 1529 1532 1535 1538 1541 1543 1546 1548 1550 1551 1552 1553 1554 1555 1555 1555 1555
1552 1543 1537 1539 1540 1542 1543 1544 1545 1544 1537 1532 1532 1522 1504 1492 1492 1493 1495 1498 1501 1502 1506 1510 1513 1517 1521 1523 1526 1530 1533 1537 1539 1543 1545 1546 1547 1548 1550 1551 1552 1553 1553 1553
1546 1537 1538 1539 1540 1541 1546 1539 1539 1540 1546 1553 1534 1548 1510 1491 1489 1487 1485 1488 1491 1495 1500 1504 1507 1511 1515 1518 1523 1526 1530 1533 1536 1539 1540 1542 1544 1545 1548 1549 1550 1550 1550 1550
1546 1539 1540 1542 1540 1537 1543 1537 1539 1540 1547 1550 1541 1550 1509 1492 1487 1482 1477 1479 1483 1488 1493 1497 1500 1505 1510 1514 1518 1522 1526 1528 1531 1534 1536 1539 1540 1543 1545 1545 1546 1548 1548 1547
1541 1537 1537 1537 1536 1537 1537 1538 1545 1549 1555 1564 1539 1540 1511 1494 1479 1473 1472 1473 1477 1482 1487 1492 1497 1502 1506 1510 1514 1518 1521 1523 1527 1530 1532 1534 1537 1539 1541 1542 1543 1544 1544 1543
1542 1537 1534 1534 1539 1539 1541 1553 1569 1561 1565 1559 1531 1541 1502 1476 1470 1467 1465 1466 1471 1477 1482 1486 1490 1495 1500 1505 1509 1513 1516 1518 1522 1525 1528 1530 1533 1536 1537 1539 1540 1540 1540 1540
1551 1550 1536 1532 1534 1541 1546 1550 1568 1557 1562 1549 1530 1531 1490 1462 1459 1459 1459 1461 1466 1472 1477 1480 1485 1490 1495 1500 1505 1508 1510 1514 1517 1520 1523 1527 1529 1531 1533 1535 1536 1536 1537 1536
1550 1544 1532 1533 1532 1534 1543 1550 1541 1548 1550 1556 1532 1504 1473 1460 1457 1455 1456 1459 1461 1467 1471 1476 1481 1486 1491 1495 1499 1503 1506 1510 1513 1516 1519 1522 1525 1527 1529 1531 1532 1533 1534 1533
1530 1540 1534 1534 1533 1533 1535 1537 1550 1557 1555 1553 1533 1519 1494 1471 1462 1457 1457 1456 1458 1463 1469 1473 1478 1482 1486 1491 1495 1499 1503 1506 1509 1512 1515 1517 1520 1523 1525 1526 1528 1530 1531 1530
1528 1533 1539 1534 1537 1538 1540 1542 1542 1548 1554 1553 1550 1514 1475 1468 1463 1460 1455 1453 1456 1460 1465 1470 1474 1478 1483 1487 1491 1494 1497 1500 1503 1506 1510 1512 1515 1517 1520 1522 1524 1526 1527 1527
1524 1535 1544 1534 1524 1526 1529 1533 1537 1554 1541 1548 1547 1514 1467 1467 1461 1457 1453 1455 1458 1461 1465 1469 1472 1475 1478 1482 1485 1488 1491 1494 1497 1501 1504 1506 1510 1512 1514 1517 1519 1521 1523 1523
1520 1533 1544 1535 1530 1527 1528 1526 1524 1530 1538 1538 1547 1505 1465 1464 1460 1456 1454 1456 1460 1463 1466 1468 1470 1472 1475 1477 1480 1482 1485 1487 1491 1494 1497 1501 1503 1506 1508 1511 1514 1517 1518 1519
1514 1524 1527 1534 1521 1520 1525 1520 1520 1521 1537 1521 1501 1490 1471 1466 1467 1462 1461 1461 1462 1463 1463 1465 1467 1468 1470 1473 1475 1477 1479 1482 1486 1489 1491 1494 1496 1499 1502 1506 1509 1511 1512 1513
1517 1522 1521 1517 1517 1517 1514 1513 1514 1518 1508 1510 1491 1486 1473 1470 1466 1462 1461 1461 1460 1458 1459 1460 1462 1463 1465 1467 1469 1472 1474 1477 1480 1483 1485 1487 1491 1494 1497 1500 1502 1505 1506 1508
1516 1520 1517 1516 1510 1512 1508 1496 1496 1497 1495 1488 1490 1468 1464 1460 1460 1459 1455 1456 1454 1454 1454 1454 1456 1457 1458 1461 1462 1465 1467 1469 1473 1475 1477 1481 1484 1487 1489 1493 1495 1498 1500 1502
1517 1518 1521 1523 1509 1512 1501 1478 1481 1480 1478 1477 1486 1445 1455 1455 1454 1450 1447 1447 1447 1448 1448 1449 1449 1450 1452 1453 1455 1457 1459 1463 1466 1468 1470 1473 1477 1479 1481 1485 1488 1490 1493 1495
1514 1517 1521 1524 1515 1517 1464 1457 1461 1460 1456 1459 1456 1451 1445 1442 1441 1440 1440 1440 1440 1440 1439 1440 1442 1443 1444 1445 1447 1451 1452 1454 1457 1460 1462 1465 1468 1472 1475 1478 1480 1482 1486 1488
1502 1511 1523 1516 1517 1475 1456 1457 1460 1458 1454 1448 1450 1444 1437 1437 1438 1429 1434 1433 1430 1429 1429 1432 1434 1435 1437 1437 1439 1441 1443 1445 1446 1449 1452 1454 1459 1463 1467 1469 1471 1475 1478 1481
1491 1494 1503 1518 1510 1490 1455 1444 1447 1447 1449 1440 1438 1437 1435 1436 1443 1428 1422 1422 1422 1420 1420 1422 1426 1427 1427 1429 1430 1430 1431 1434 1435 1440 1441 1444 1449 1453 1457 1462 1465 1468 1471 1474
1485 1491 1484 1486 1487 1458 1448 1439 1444 1461 1458 1432 1430 1433 1433 1436 1430 1423 1420 1417 1416 1416 1415 1417 1418 1418 1419 1420 1420 1419 1422 1420 1425 1430 1432 1435 1438 1442 1447 1453 1457 1461 1465 1467
1476 1485 1476 1479 1481 1467 1440 1444 1449 1442 1434 1432 1433 1435 1433 1429 1425 1420 1418 1416 1413 1413 1415 1415 1414 1413 1413 1412 1411 1410 1410 1414 1417 1419 1422 1425 1428 1432 1437 1442 1447 1452 1455 1459
1471 1465 1461 1458 1445 1440 1440 1435 1435 1436 1435 1430 1428 1426 1427 1425 1422 1418 1415 1414 1413 1412 1412 1411 1409 1408 1408 1407 1405 1404 1404 1407 1409 1410 1411 1414 1419 1422 1427 1432 1436 1441 1446 1450
1475 1478 1475 1465 1437 1446 1444 1442 1439 1433 1431 1428 1424 1422 1421 1419 1415 1414 1413 1410 1409 1409 1408 1407 1406 1404 1403 1403 1401 1399 1399 1400 1400 1401 1403 1406 1409 1413 1417 1422 1427 1432 1437 1442
1474 1469 1468 1463 1453 1448 1439 1434 1434 1431 1427 1426 1421 1417 1413 1413 1410 1408 1407 1406 1406 1405 1404 1402 1400 1399 1399 1398 1397 1395 1394 1394 1394 1395 1396 1398 1401 1404 1409 1414 1419 1424 1430 1435
1465 1461 1461 1451 1447 1448 1441 1437 1432 1430 1425 1421 1420 1412 1408 1404 1403 1403 1401 1399 1399 1399 1399 1397 1397 1396 1394 1393 1392 1392 1391 1390 1390 1389 1390 1392 1395 1398 1403 1407 1413 1418 1423 1426
Wind_Speed
2 4 3 6 8 5 3 3 3 5 2 3 8 11 15 23 20 28 30 30 33 34 26 25 23 24 24 27 24 24 24 19 19 18 17 16 13 11 11 9 9 8 8 8
5 5 9 5 4 4 3 3 5 5 1 1 8 14 15 13 16 33 38 36 35 33 32 31 28 29 28 28 27 25 24 21 19 17 14 13 12 13 11 10 8 7 7 8
5 6 1 5 2 2 2 3 3 4 5 4 6 9 6 6 22 27 37 42 39 36 32 32 34 32 29 30 29 27 24 22 20 16 15 16 16 14 11 8 6 5 8 9
5 5 6 2 3 4 2 2 2 3 5 3 4 6 8 5 8 10 30 37 42 39 34 31 34 35 33 29 27 26 24 23 20 18 19 18 15 13 9 9 8 8 10 11
6 2 3 3 5 3 6 1 2 2 1 4 3 1 9 2 7 10 20 38 40 39 35 35 35 36 31 28 26 25 24 23 22 21 20 18 17 14 12 12 11 10 12 13
7 3 4 7 1 1 2 3 6 4 2 2 5 5 7 5 8 4 7 35 38 38 36 33 32 35 31 26 26 26 26 25 23 23 21 20 17 14 14 12 11 10 12 14
4 4 2 3 3 4 4 6 4 3 2 6 1 3 11 8 9 8 11 34 35 35 33 33 34 38 34 30 28 28 27 26 24 23 22 20 17 15 14 11 10 10 11 11
4 6 7 3 6 6 5 7 5 4 3 5 2 7 7 8 11 17 20 28 36 36 35 34 35 36 34 31 29 29 29 27 26 23 21 18 17 16 13 11 10 8 9 10
5 5 1 2 1 5 3 4 4 2 1 2 5 8 10 7 8 6 19 19 31 35 34 34 35 36 34 33 31 30 29 27 26 24 21 21 19 18 14 11 11 7 7 8
4 1 2 1 1 1 3 3 3 2 3 5 6 6 8 9 7 5 6 19 27 31 32 34 34 34 34 33 31 29 27 26 25 24 23 22 20 18 16 15 12 8 6 7
5 4 2 1 5 8 1 2 0 2 5 4 3 6 6 6 7 10 11 23 28 29 32 31 32 32 32 33 32 31 29 28 28 27 25 24 23 21 20 19 16 11 7 6
7 4 5 11 3 5 5 9 7 4 5 4 3 8 4 8 9 10 17 18 23 27 29 28 29 30 32 32 33 33 32 31 30 29 28 27 25 24 24 23 19 15 9 7
6 3 2 7 4 0 5 6 6 3 3 7 5 7 2 7 11 16 7 9 17 21 25 27 28 30 31 32 33 34 34 33 31 31 30 30 29 29 28 26 22 18 12 9
5 5 8 7 5 4 4 5 7 8 4 6 18 18 21 16 11 16 18 11 14 21 26 28 29 31 31 33 34 35 35 35 34 33 33 33 32 32 30 28 25 21 15 12
2 6 5 6 6 4 6 9 10 12 16 13 2 20 17 20 20 22 23 26 16 23 27 31 32 33 34 34 34 35 36 36 35 36 36 36 34 33 32 31 29 25 21 15
1 4 2 6 7 8 16 21 18 17 18 21 19 32 16 29 29 25 32 25 28 23 21 31 35 35 36 35 36 37 38 38 37 38 39 37 36 35 36 35 34 30 25 21
3 4 2 5 4 8 14 20 23 18 15 15 17 32 19 16 13 30 37 34 37 44 33 29 31 37 36 37 37 39 39 40 40 40 40 40 39 39 39 38 37 34 30 25
5 4 4 4 3 12 8 2 6 19 22 21 22 24 25 26 32 39 41 39 36 37 35 32 31 31 37 40 40 38 40 41 41 43 43 43 43 43 42 42 41 38 33 29
15 6 2 6 9 19 29 17 4 5 9 9 17 23 35 37 29 32 38 40 43 43 43 35 27 27 28 33 39 44 44 43 44 45 46 47 46 46 46 45 44 41 37 32
12 14 11 3 6 13 3 4 22 6 19 12 17 15 16 9 6 13 36 33 30 28 29 31 32 34 36 30 29 36 46 48 48 44 47 48 47 47 49 47 46 43 39 33
10 7 20 16 17 14 7 14 6 3 6 4 0 13 16 4 7 20 21 24 23 20 15 11 11 16 18 22 34 41 38 44 46 46 47 46 47 47 47 47 46 44 40 35
7 5 11 9 13 23 5 9 22 6 36 7 10 16 16 23 30 25 18 16 16 10 9 13 16 17 17 20 23 29 36 35 36 41 47 47 45 46 46 45 45 44 41 36
17 12 10 11 12 10 11 8 20 8 15 26 31 34 34 25 23 24 18 16 15 11 11 16 17 16 15 15 19 26 28 29 31 34 39 44 44 45 46 44 44 45 41 36
5 17 7 12 14 22 45 38 26 32 38 45 48 47 46 36 28 18 17 20 20 20 19 19 21 21 21 18 18 20 22 24 27 29 32 35 39 40 41 40 41 43 41 34
8 7 8 15 24 29 28 34 43 46 48 43 40 33 35 27 26 22 24 23 21 18 17 19 22 22 20 19 19 19 18 20 22 23 25 29 32 33 34 36 38 39 35 31
21 19 14 18 29 27 36 44 51 41 39 42 42 37 32 28 26 26 25 21 21 20 18 19 17 18 20 21 21 21 21 20 20 22 24 26 27 28 30 34 36 34 31 29
Wind_Direction
15 60 224 240 216 223 251 243 270 260 252 172 240 262 264 258 238 234 232 226 226 230 233 235 232 227 226 227 233 233 235 235 234 235 236 238 242 244 242 243 247 255 267 280
12 242 236 244 200 226 256 293 298 288 299 192 273 263 259 228 230 227 227 229 229 232 233 231 227 223 224 227 230 233 235 234 235 238 239 241 241 237 233 232 238 251 268 283
175 238 111 190 232 258 271 226 258 252 322 267 307 286 290 263 231 229 228 235 234 232 228 226 223 221 223 226 229 231 233 232 233 234 235 233 230 229 223 227 236 260 274 288
224 275 192 218 253 140 292 217 280 321 29 270 37 287 295 266 261 218 221 226 231 230 228 227 223 220 222 226 229 232 232 230 230 231 232 233 232 231 225 236 250 266 284 292
258 211 192 213 228 165 228 35 348 351 349 348 303 126 271 296 263 237 222 225 226 226 227 226 224 223 223 223 224 228 229 228 228 230 231 233 231 228 228 241 257 273 285 296
235 267 180 205 153 42 89 22 31 50 73 331 238 159 277 221 221 262 223 224 226 224 225 226 226 222 221 221 221 224 224 224 224 226 227 227 227 226 234 245 266 285 293 299
318 223 217 160 125 12 78 55 329 339 348 229 217 173 252 261 240 225 215 218 220 216 217 220 218 216 217 216 217 220 221 221 219 222 223 222 223 226 235 246 267 280 291 300
184 311 172 189 178 185 181 158 164 244 240 283 333 240 253 233 257 263 248 231 215 212 216 219 217 215 216 215 217 218 217 216 216 217 217 218 221 225 232 240 255 271 289 300
161 271 50 17 61 142 177 184 193 137 330 6 248 289 294 289 264 243 225 224 219 214 213 215 216 217 217 217 219 220 218 215 215 216 215 215 218 222 224 230 239 247 278 300
215 289 37 298 294 50 150 180 75 5 241 261 281 274 242 322 304 286 222 218 213 211 212 213 216 218 219 220 221 221 221 218 215 216 216 217 219 220 218 220 218 226 261 292
178 139 247 81 208 190 112 273 174 147 164 202 297 268 218 264 289 265 258 222 212 210 210 212 215 220 223 222 221 221 220 218 216 217 217 218 217 217 216 215 210 217 245 282
210 157 197 209 235 184 180 201 159 143 242 234 167 265 282 284 290 287 258 250 229 215 213 216 218 219 220 219 220 220 220 220 218 218 219 220 218 217 217 213 210 219 236 268
183 216 315 326 4 256 208 204 186 134 93 211 164 260 263 336 357 9 304 256 239 230 224 222 222 222 222 222 222 222 221 222 222 221 221 221 219 218 217 212 212 220 232 256
158 172 180 197 208 141 205 215 209 183 192 224 237 275 276 296 303 322 347 324 269 246 236 231 229 227 227 228 227 226 226 226 226 224 224 222 220 220 219 214 214 220 230 249
196 216 199 237 239 273 249 241 222 210 225 218 166 242 257 261 275 280 286 298 284 261 241 236 237 236 233 233 232 231 231 229 228 227 227 226 223 223 221 216 218 222 230 245
37 267 242 267 270 257 266 259 245 237 233 244 253 264 252 257 267 275 279 278 280 276 272 252 245 242 239 239 239 236 234 231 229 229 230 230 227 224 223 219 221 225 231 240
199 160 83 254 248 300 277 250 246 244 222 228 225 251 269 262 245 251 262 269 266 270 274 281 262 251 248 246 246 243 242 238 233 233 234 233 231 228 226 223 224 227 231 238
201 176 170 231 104 246 251 283 251 234 240 228 243 256 256 260 258 255 259 264 273 277 275 273 267 263 257 255 251 252 248 246 241 239 239 238 235 232 229 226 227 229 231 237
202 180 244 223 218 272 276 288 267 200 268 222 227 247 257 265 271 270 271 269 269 270 272 272 267 263 266 265 261 255 251 249 246 243 243 242 238 235 232 229 229 230 231 235
195 208 213 167 218 236 308 211 259 215 273 228 226 244 255 274 278 278 282 280 282 283 274 267 265 269 267 264 263 259 253 250 249 249 249 246 244 239 237 234 233 232 232 235
201 208 215 222 240 263 227 271 39 132 234 329 250 260 274 195 232 314 326 309 297 292 283 263 268 284 277 265 260 259 258 254 256 256 252 251 249 245 243 239 236 234 233 233
251 188 216 220 230 256 152 234 233 262 275 274 308 303 300 299 305 314 321 330 328 293 275 296 300 297 290 277 271 262 255 258 260 258 255 254 253 249 245 242 238 232 231 233
234 236 238 209 233 266 269 244 232 247 287 288 297 299 308 305 299 308 307 317 315 302 301 322 318 316 313 302 282 272 270 265 262 262 259 255 253 250 246 241 234 228 229 232
250 317 323 346 290 314 311 314 322 315 306 292 287 287 291 293 298 286 289 311 310 305 305 305 311 312 312 317 306 297 283 270 262 261 261 258 253 250 245 238 232 229 228 230
255 313 280 285 291 306 302 297 319 314 311 315 321 315 292 297 288 292 291 295 295 293 298 296 295 296 300 311 313 313 303 286 271 262 256 254 251 247 239 233 229 226 229 234
253 257 256 261 266 261 275 287 296 296 299 308 306 306 316 323 321 299 286 288 281 278 283 280 284 288 305 310 308 307 305 295 285 273 259 248 243 237 229 224 219 219 223 228